Location: *
(50.9167°S, 179.4000°W)
Time: 20:37:04
(UTC+00:00)

Cosmos 2218 Rocket - Pass Details

Date: 03 March 2024
Orbit: 956 x 1005 km, 82.9° (Epoch: 16 April)

Event Time Altitude Azimuth Distance (km) Brightness Sun altitude
Exits shadow 13:21:40 64° 73° (ENE) 1,123 4.2 -30.5°
Maximum altitude 13:21:56 64° 86° (E) 1,118 4.2 -30.5°
Drops below altitude 10° 13:28:20 10° 165° (SSE) 2,813 7.3 -30.1°
Sets 13:30:54 0° 168° (SSE) 3,765 8.2 -30.0°
